User: anonymous   Login
Location: Unspecified
(0.0000°N, 0.0000°E)
Time: 01:35:03
(UTC+00:00)
Language:

APRIZESAT 6 - Orbit

View from above orbital plane
View from above orbital plane
View from above satellite
View from above satellite

Ground track
Ground track

The orbit data is extracted from the following two-line orbital elements,

1 37793U 11044F   18352.55364022  .00000033  00000-0  13846-4 0  9997
2 37793  98.3634 139.1629 0047921 132.7854 292.3535 14.72353805394102
Epoch (UTC): 18 December 2018 13:17:14
Eccentricity: 0.0047921
inclination: 98.3634°
perigee height: 620 km
apogee height: 687 km
right ascension of ascending node: 139.1629°
argument of perigee: 132.7854°
revolutions per day: 14.72353805
mean anomaly at epoch: 292.3535°
orbit number at epoch: 39410

The dashed part of the orbit path shows where the satellite is in the earth's shadow,  

DLR